Weather History for KSFF - October, 2013

Change the Weather History Date:

Thursday, October 24, 2013

  Actual Average Record
Temperature  
Mean Temperature 50 °F 45 °F  
Max Temperature 61 °F 55 °F 71 °F (2007)
Min Temperature 38 °F 35 °F 21 °F (2002)
Degree Days  
Heating Degree Days 15 20  
Month to date heating degree days 406 374  
Since 1 July heating degree days 540 585  
Cooling Degree Days 0 0  
Month to date cooling degree days 0 0  
Year to date cooling degree days 704 406  
Growing Degree Days 1 (Base 50)    
Moisture  
Dew Point 41 °F    
Average Humidity 76    
Maximum Humidity 100    
Minimum Humidity 51    
Precipitation  
Precipitation 0.00 in 0.05 in 0.22 in (2010)
Month to date precipitation 0.12 0.99  
Year to date precipitation 11.80 12.57  
Sea Level Pressure  
Sea Level Pressure 30.14 in    
Wind  
Wind Speed 1 mph (ENE)    
Max Wind Speed 10 mph    
Max Gust Speed 14 mph    
Visibility 6 miles    
Events Fog    
T = Trace of Precipitation, MM = Missing Value Source: NWS Daily Summary

Daily Weather History Graph

Daily Weather History Graph

Search for Another Location

Airport or City:

Trip Planner

Search our weather history database for the weather conditions in past years. The results will help you decide how hot, cold, wet, or windy it might be!

Date:

Astronomy

Oct. 24, 2013 Rise Set
Actual Time 7:21 AM PDT 5:44 PM PDT
Civil Twilight 6:50 AM PDT 6:15 PM PDT
Nautical Twilight 6:14 AM PDT 6:51 PM PDT
Astronomical Twilight 5:38 AM PDT 7:27 PM PDT
Moon 10:04 PM PDT (10/24) 12:35 PM PDT (10/24)
Length of Visible Light 11h 25m
Length of Day
10h 22m
Waning Gibbous, 70% of the Moon is Illuminated
Oct 24
Waning Gibbous
Oct 26
Last Quarter
Nov 3
New
Nov 9
First Quarter
Nov 17
Full

Hourly Weather History & Observations

Time (PDT) Temp. Windchill Dew Point Humidity Pressure Visibility Wind Dir Wind Speed Gust Speed Precip Events Conditions
12:53 AM 42.1 °F - 39.9 °F 92% 30.14 in 6.0 mi Calm Calm - N/A   Clear
1:25 AM 41.0 °F - 39.2 °F 93% 30.13 in 2.0 mi Calm Calm - N/A   Clear
1:34 AM 42.8 °F - 39.2 °F 87% 30.13 in 4.0 mi Calm Calm - N/A   Clear
1:53 AM 42.1 °F - 39.9 °F 92% 30.14 in 5.0 mi Calm Calm - N/A   Clear
2:26 AM 42.8 °F 40.1 °F 39.2 °F 87% 30.13 in 6.0 mi ESE 4.6 mph - N/A   Scattered Clouds
2:36 AM 42.8 °F - 39.2 °F 87% 30.13 in 6.0 mi Calm Calm - N/A   Mostly Cloudy
2:53 AM 43.0 °F - 41.0 °F 93% 30.13 in 6.0 mi Calm Calm - N/A   Overcast
3:15 AM 42.8 °F - 41.0 °F 93% 30.13 in 2.5 mi Calm Calm - N/A   Overcast
3:23 AM 42.8 °F - 41.0 °F 93% 30.13 in 1.5 mi Calm Calm - N/A   Overcast
3:31 AM 42.8 °F - 41.0 °F 93% 30.13 in 2.5 mi Calm Calm - N/A   Overcast
3:39 AM 42.8 °F - 42.8 °F 100% 30.13 in 3.0 mi Calm Calm - N/A   Overcast
3:53 AM 43.0 °F - 42.1 °F 97% 30.13 in 4.0 mi Calm Calm - N/A   Overcast
4:34 AM 42.8 °F 41.1 °F 41.0 °F 93% 30.14 in 1.8 mi ENE 3.5 mph - N/A   Overcast
4:43 AM 42.8 °F 41.1 °F 41.0 °F 93% 30.14 in 0.5 mi ENE 3.5 mph - N/A Fog Fog
4:53 AM 43.0 °F - 41.0 °F 93% 30.14 in 0.8 mi Calm Calm - N/A   Overcast
5:08 AM 42.8 °F - 42.8 °F 100% 30.14 in 1.2 mi Calm Calm - N/A   Overcast
5:18 AM 42.8 °F 41.1 °F 41.0 °F 93% 30.14 in 3.0 mi East 3.5 mph - N/A   Overcast
5:53 AM 43.0 °F - 42.1 °F 97% 30.14 in 6.0 mi Calm Calm - N/A   Overcast
6:53 AM 44.1 °F 40.8 °F 42.1 °F 93% 30.15 in 9.0 mi ENE 5.8 mph - N/A   Overcast
7:00 AM 42.8 °F 39.3 °F 41.0 °F 93% 30.13 in 3.0 mi East 5.8 mph - N/A   Overcast
7:53 AM 43.0 °F 39.5 °F 41.0 °F 93% 30.17 in 3.0 mi ENE 5.8 mph - N/A   Overcast
8:53 AM 44.1 °F - 41.0 °F 89% 30.17 in 5.0 mi Calm Calm - N/A   Overcast
9:53 AM 46.0 °F - 42.1 °F 86% 30.18 in 7.0 mi Calm Calm - N/A   Overcast
10:53 AM 46.0 °F - 42.1 °F 86% 30.18 in 7.0 mi Calm Calm - N/A   Overcast
11:29 AM 50.0 °F - 42.8 °F 76% 30.17 in 10.0 mi ENE 4.6 mph - N/A   Partly Cloudy
11:53 AM 51.1 °F - 43.0 °F 74% 30.18 in 10.0 mi Calm Calm - N/A   Partly Cloudy
12:53 PM 55.0 °F - 44.1 °F 67% 30.14 in 10.0 mi Calm Calm - N/A   Clear
1:53 PM 57.9 °F - 44.1 °F 60% 30.12 in 10.0 mi Calm Calm - N/A   Clear
2:53 PM 60.1 °F - 45.0 °F 57% 30.10 in 10.0 mi Calm Calm - N/A   Clear
3:53 PM 61.0 °F - 45.0 °F 56% 30.10 in 10.0 mi WSW 3.5 mph - N/A   Clear
4:53 PM 60.1 °F - 43.0 °F 53% 30.09 in 10.0 mi WSW 3.5 mph - N/A   Clear
5:53 PM 51.1 °F - 44.1 °F 77% 30.10 in 10.0 mi Calm Calm - N/A   Clear
6:53 PM 46.9 °F - 43.0 °F 86% 30.11 in 10.0 mi Calm Calm - N/A   Clear
7:53 PM 45.0 °F - 42.1 °F 90% 30.12 in 7.0 mi Calm Calm - N/A   Clear
8:53 PM 45.0 °F 43.5 °F 39.9 °F 82% 30.13 in 10.0 mi ENE 3.5 mph - N/A   Clear
9:53 PM 45.0 °F 43.5 °F 42.1 °F 90% 30.14 in 10.0 mi ENE 3.5 mph - N/A   Clear
10:53 PM 43.0 °F - 41.0 °F 93% 30.16 in 10.0 mi Calm Calm - N/A   Clear
11:11 PM 41.0 °F - 39.2 °F 93% 30.14 in 1.8 mi Calm Calm - N/A   Clear
11:19 PM 41.0 °F - 39.2 °F 93% 30.14 in 1.5 mi Calm Calm - N/A   Partly Cloudy
11:25 PM 41.0 °F - 39.2 °F 93% 30.15 in 3.0 mi Calm Calm - N/A   Clear
11:53 PM 39.9 °F - 37.9 °F 93% 30.17 in 3.0 mi Calm Calm - N/A   Clear